Location: Iwkowa
(49.8210°N, 20.5761°E)
Time: 15:29:19
(UTC+01:00)

ISS - Pass Details

Date: 31 January 2019
Orbit: 403 x 411 km, 51.6° (Epoch: 20 February)

Event Time Altitude Azimuth Distance (km) Brightness Sun altitude
Rises 18:10:52 0° 275° (W) 2,336 1.7 -16.3°
Reaches altitude 10° 18:12:59 10° 279° (W) 1,477 0.2 -16.6°
Maximum altitude 18:16:16 60° 0° (N) 474 -3.6 -17.1°
Enters shadow 18:16:54 48° 51° (NE) 549 -3.6 -17.3°
